Starlink 3631

operational
NORAD ID: 51790 Int'l Des: 2022-017 Owner: SPXS Country: US Constellation: starlink
LEOCIRCULAR

关于 Starlink 3631

正在加载描述...

实时位置

正在加载3D地球...

即将过境

高度历史

Altitude vs Time

uPlot chart will show altitude changes over time

两行轨道根数

1 51790U 22017Y 26061.15688598 -.00000100 00000-0 11842-4 0 9991
2 51790 53.2184 22.9353 0001507 73.4999 286.6159 15.08834363222830
Epoch: Mar 2, 2026 • Age: 28 hours

当前状态

高度 544.5 km
速度 7.60 km/s
星下点 49.74°N, 140.09°W
发射日期 Feb 25, 2022
运行时间 4 years
类型 internet

技术详情

分类 Payload
质量 297.00 kg
干质量 275.00 kg
总质量 297.00 kg
长度 0.20 m
直径 2.80 m
跨度 9.00 m
形状 Box + pan
制造商 SPXS
平台类型 Starlink
阶段状态 In Orbit
所有者/国家 SPXS/US

大型星座

Loading constellations...